Regional Weather Roundup
Issued by NWS

Home | Current Version | Previous Version | Text Only | Print | Product List | Glossary Off
Versions: 1 2 3 4 5 6 7 8 9 10 11 12 13 14 15 16 17 18 19 20 21 22 23 24 25 26 27 28

000
ASUS45 KCYS 260410
RWRWY

WYOMING REGIONAL WEATHER ROUNDUP
NATIONAL WEATHER SERVICE CHEYENNE WY
1000 PM MDT SUN JUN 25 2017

NOTE:  "FAIR" INDICATES FEW OR NO CLOUDS BELOW 12,000 FEET
WITH NO SIGNIFICANT WEATHER AND/OR OBSTRUCTIONS TO VISIBILITY.

WYZ001-260500-
YELLOWSTONE NATIONAL PARK

CITY           SKY/WX    TMP DP  RH WIND       PRES   REMARKS
LK YELLOWSTONE   N/A     54  36  50 NW3       30.44R
W YELLOWSTONE  NOT AVBL

$$
WYZ002>013-054>058-071-098>099-260500-
NORTHERN WYOMING

CITY           SKY/WX    TMP DP  RH WIND       PRES   REMARKS
JACKSON        FAIR      57  39  51 E6        30.32R
CODY           FAIR      65  37  35 CALM      30.30R
GREYBULL       FAIR      73  29  19 NW9       30.19R
WORLAND        FAIR      64  41  42 E6        30.21R
SHERIDAN       FAIR      54  43  66 S7        30.26R
BUFFALO        FAIR      55  41  59 W8        30.32R
GILLETTE       FAIR      50  36  58 W3        30.27R
NEWCASTLE      FAIR      63  27  25 NE10G17   30.26R

$$
WYZ014>020-022>026-101>103-260500-
CENTRAL WYOMING

CITY           SKY/WX    TMP DP  RH WIND       PRES   REMARKS
BIG PINEY      FAIR      60  37  42 N12       30.35R
PINEDALE       FAIR      55  43  62 NW5       30.36R
DUBOIS         FAIR      61  36  39 SE3       30.38R
LANDER         FAIR      65  39  38 SW5       30.28R
RIVERTON       FAIR      66  30  26 NE7       30.28R
CASPER         FAIR      60  37  42 NE9       30.30R
DOUGLAS        FAIR      61  35  37 NE8       30.29R

$$
WYZ021-027>030-104>119-260500-
SOUTHERN WYOMING

CITY           SKY/WX    TMP DP  RH WIND       PRES   REMARKS
EVANSTON       FAIR      69  34  27 NE7       30.35R
KEMMERER         N/A     63  32  31 N12       30.36S
FORT BRIDGER   FAIR      69  30  24 NW5       30.37R
ROCK SPRINGS   FAIR      71  22  15 E3        30.32R
DIXON          FAIR      63  26  24 N9        30.34R
RAWLINS        FAIR      57  22  25 NE9       30.35R
SARATOGA       FAIR      59  28  31 N7        30.37S
LARAMIE        FAIR      54  46  74 SE7       30.39R
CHEYENNE       FAIR      59  48  67 SW7       30.36R
TORRINGTON     FAIR      64  43  46 E6        30.22R
PINE BLUFFS    FAIR      57  52  82 S6        30.32R

$$




USA.gov is the U.S. government's official web portal to all federal, state and local government web resources and services.